Quillayute, WA

10:34 AM PDT on October 17, 2017 (GMT -0700)
Quillayute

Weather History for KUIL - February, 2014

Change the Weather History Date:

Sunday, February 16, 2014

  Actual Average Record
Temperature  
Mean Temperature 43 °F 42 °F  
Max Temperature 49 °F 49 °F 59 °F (2015)
Min Temperature 36 °F 35 °F 25 °F (1968)
Degree Days  
Heating Degree Days 22 23  
Month to date heating degree days 388 368  
Since 1 July heating degree days 2946 3573  
Cooling Degree Days 0 0  
Month to date cooling degree days 0 0  
Year to date cooling degree days 0 0  
Moisture  
Dew Point 40 °F    
Average Humidity 80    
Maximum Humidity 89    
Minimum Humidity 70    
Precipitation  
Precipitation 0.67 in 0.35 in 2.07 in (1994)
Month to date precipitation 5.76 6.04  
Year to date precipitation 17.69 20.65  
Sea Level Pressure  
Sea Level Pressure 29.69 in    
Wind  
Wind Speed 13 mph (SSW)    
Max Wind Speed 30 mph    
Max Gust Speed 45 mph    
Visibility 4 miles    
Events Rain    
T = Trace of Precipitation, MM = Missing Value Source: NWS Daily Summary

Daily Weather History Graph

Daily Weather History Graph

Search for Another Location

Airport or City:

Trip Planner

Search our weather history database for the weather conditions in past years. The results will help you decide how hot, cold, wet, or windy it might be!

Date:

Astronomy

Feb. 16, 2014 Rise Set
Actual Time 7:22 AM PST 5:42 PM PST
Civil Twilight 6:50 AM PST 6:14 PM PST
Nautical Twilight 6:14 AM PST 6:50 PM PST
Astronomical Twilight 5:38 AM PST 7:26 PM PST
Moon 7:57 PM PST (2/16) 7:44 AM PST (2/16)
Length of Visible Light 11h 23m
Length of Day
10h 20m
Full, 97% of the Moon is Illuminated
Feb 16
Full
Feb 22
Last Quarter
Mar 1
New
Mar 8
First Quarter
Mar 16
Full

Hourly Weather History & Observations

Time (PST) Temp. Windchill Dew Point Humidity Pressure Visibility Wind Dir Wind Speed Gust Speed Precip Events Conditions
12:00 AM 42.1 °F 35.2 °F 36.0 °F 79% 29.62 in 7.0 mi West 12.7 mph - 0.00 in Rain Light Rain
12:44 AM 43.0 °F 36.0 °F 35.1 °F 74% 29.64 in 7.0 mi WSW 13.8 mph 19.6 mph 0.00 in   Overcast
12:53 AM 43.0 °F 36.0 °F 35.1 °F 74% 29.65 in 7.0 mi WSW 13.8 mph - 0.00 in   Overcast
1:21 AM 43.0 °F 36.8 °F 30.9 °F 62% 29.65 in 8.0 mi SW 11.5 mph 23.0 mph 0.00 in Rain Light Rain
1:53 AM 39.9 °F 34.5 °F 35.1 °F 83% 29.68 in 7.0 mi West 8.1 mph - 0.00 in   Mostly Cloudy
2:53 AM 41.0 °F 36.4 °F 35.1 °F 79% 29.71 in 7.0 mi SW 6.9 mph - N/A   Mostly Cloudy
3:13 AM 43.0 °F 37.7 °F 34.0 °F 71% 29.71 in 7.0 mi SW 9.2 mph - N/A   Mostly Cloudy
3:53 AM 43.0 °F 32.4 °F 33.1 °F 68% 29.74 in 5.0 mi SW 31.1 mph 41.4 mph N/A   Haze
3:57 AM 39.0 °F 28.0 °F 33.1 °F 79% 29.75 in 2.0 mi WSW 25.3 mph 41.4 mph 0.00 in Rain Heavy Rain
3:59 AM 37.9 °F 27.1 °F 33.1 °F 83% 29.75 in 1.8 mi WSW 23.0 mph 41.4 mph 0.01 in Rain Heavy Rain
4:09 AM 37.9 °F 27.9 °F 34.0 °F 86% 29.76 in 2.0 mi WSW 19.6 mph 39.1 mph 0.03 in Rain Rain
4:15 AM 37.9 °F 30.9 °F 34.0 °F 86% 29.75 in 3.0 mi SW 10.4 mph 26.5 mph 0.05 in Rain Rain
4:22 AM 37.9 °F 33.5 °F 34.0 °F 86% 29.74 in 6.0 mi SW 5.8 mph - 0.05 in Rain Light Rain
4:37 AM 37.9 °F 33.5 °F 34.0 °F 86% 29.75 in 8.0 mi SSW 5.8 mph - 0.05 in   Overcast
4:53 AM 39.0 °F 34.0 °F 34.0 °F 82% 29.76 in 7.0 mi SW 6.9 mph - 0.05 in   Scattered Clouds
5:53 AM 39.0 °F 34.8 °F 35.1 °F 86% 29.78 in 7.0 mi SSW 5.8 mph - N/A   Mostly Cloudy
6:53 AM 37.0 °F 33.3 °F 34.0 °F 89% 29.80 in 7.0 mi East 4.6 mph - 0.01 in   Scattered Clouds
7:53 AM 36.0 °F 33.3 °F 32.0 °F 86% 29.82 in 5.0 mi East 3.5 mph - N/A   Clear
8:53 AM 45.0 °F 40.1 °F 37.9 °F 76% 29.84 in 6.0 mi SSW 9.2 mph - 0.00 in   Haze
9:53 AM 46.0 °F 41.9 °F 37.0 °F 71% 29.84 in 4.0 mi SSE 8.1 mph 18.4 mph N/A   Haze
10:53 AM 45.0 °F 39.3 °F 37.9 °F 76% 29.83 in 6.0 mi SSE 11.5 mph - 0.01 in   Haze
11:53 AM 46.9 °F - 37.0 °F 68% 29.84 in 5.0 mi South 9.2 mph 24.2 mph N/A   Haze
12:53 PM 46.9 °F - 37.0 °F 68% 29.79 in 3.0 mi SSE 17.3 mph 34.5 mph 0.00 in Rain Light Rain
1:24 PM 45.0 °F 38.5 °F 39.0 °F 80% 29.74 in 1.8 mi SSE 13.8 mph 28.8 mph 0.02 in Rain Rain
1:53 PM 45.0 °F 37.9 °F 39.9 °F 82% 29.73 in 1.5 mi South 16.1 mph 31.1 mph 0.08 in Rain Rain
2:29 PM 46.0 °F 39.6 °F 41.0 °F 83% 29.69 in 1.2 mi South 15.0 mph 33.4 mph 0.10 in Rain Rain
2:48 PM 46.4 °F 39.0 °F 42.8 °F 87% 29.67 in 1.0 mi South 19.6 mph 32.2 mph 0.17 in Rain Rain
2:53 PM 46.0 °F 38.3 °F 42.1 °F 86% 29.67 in 1.2 mi South 20.7 mph 32.2 mph 0.18 in Rain Rain
2:56 PM 46.0 °F 38.3 °F 42.1 °F 86% 29.66 in 1.5 mi South 20.7 mph 33.4 mph 0.01 in Rain Rain
3:17 PM 46.9 °F - 43.0 °F 86% 29.65 in 1.2 mi South 19.6 mph 40.3 mph 0.06 in Rain Rain
3:31 PM 46.9 °F - 43.0 °F 86% 29.63 in 1.0 mi South 21.9 mph 43.7 mph 0.10 in Rain Rain
3:53 PM 48.0 °F - 44.1 °F 86% 29.62 in 1.2 mi South 24.2 mph 40.3 mph 0.16 in Rain Rain
4:08 PM 48.0 °F - 44.1 °F 86% 29.60 in 0.8 mi South 21.9 mph 35.7 mph 0.04 in Rain Rain
4:19 PM 48.0 °F - 44.1 °F 86% 29.60 in 1.2 mi South 23.0 mph 36.8 mph 0.07 in Rain Light Rain
4:26 PM 48.0 °F - 45.0 °F 89% 29.60 in 1.8 mi South 16.1 mph 40.3 mph 0.07 in Rain Light Rain
4:43 PM 48.9 °F - 45.0 °F 86% 29.59 in 1.2 mi South 21.9 mph 41.4 mph 0.10 in Rain Rain
4:53 PM 48.9 °F - 45.0 °F 86% 29.60 in 1.5 mi South 24.2 mph 36.8 mph 0.11 in Rain Light Rain
5:08 PM 48.9 °F - 45.0 °F 86% 29.61 in 1.0 mi SSW 18.4 mph 34.5 mph 0.03 in Rain Rain
5:23 PM 48.9 °F - 45.0 °F 86% 29.60 in 2.0 mi SSW 21.9 mph 29.9 mph 0.07 in Rain Light Rain
5:33 PM 48.9 °F - 46.0 °F 90% 29.60 in 3.0 mi SSW 23.0 mph 40.3 mph 0.07 in Rain Light Rain
5:53 PM 48.9 °F - 46.0 °F 90% 29.63 in 4.0 mi SSW 23.0 mph 31.1 mph 0.07 in   Overcast
6:40 PM 48.0 °F - 45.0 °F 89% 29.63 in 5.0 mi SSW 13.8 mph 25.3 mph 0.00 in   Overcast
6:53 PM 48.9 °F - 44.1 °F 83% 29.65 in 4.0 mi South 16.1 mph 25.3 mph 0.00 in   Haze
7:04 PM 48.9 °F - 45.0 °F 86% 29.64 in 4.0 mi SSW 16.1 mph 25.3 mph N/A   Overcast
7:50 PM 48.2 °F - 44.6 °F 87% 29.66 in 5.0 mi SSW 12.7 mph 24.2 mph N/A   Overcast
7:53 PM 48.0 °F - 44.1 °F 86% 29.67 in 5.0 mi SSW 18.4 mph 26.5 mph N/A   Overcast
8:16 PM 48.0 °F - 43.0 °F 83% 29.65 in 5.0 mi SSW 10.4 mph 23.0 mph N/A   Haze
8:38 PM 48.9 °F - 44.1 °F 83% 29.66 in 5.0 mi SSW 16.1 mph 28.8 mph N/A   Haze
8:53 PM 48.9 °F - 44.1 °F 83% 29.67 in 5.0 mi SSW 12.7 mph 21.9 mph N/A   Haze
9:20 PM 48.9 °F - 44.1 °F 83% 29.65 in 4.0 mi SSW 9.2 mph 19.6 mph N/A   Haze
9:53 PM 48.9 °F - 44.1 °F 83% 29.67 in 4.0 mi SSW 11.5 mph 21.9 mph N/A   Haze
10:53 PM 48.9 °F - 44.1 °F 83% 29.68 in 4.0 mi SW 10.4 mph 18.4 mph N/A   Haze
11:53 PM 48.9 °F - 43.0 °F 80% 29.66 in 4.0 mi SSW 9.2 mph - N/A   Haze